Back to catalog

SL-3 DEB

AliveSSO
NORAD 14229·DEBRIS·🇷🇺 Russia

Launched Jul 24, 1983 from Baikonur Cosmodrome

Loading…

Next Passes (next 24 hours)

TLE

FreshSource: Space-Track

Epoch: Sep 14, 2026, 11:00 UTC

1 14229U 83075D   26257.45887013  .00001770  00000-0  11110-3 0  9991
2 14229  97.8967 256.6595 0028230  28.7171 125.8485 15.10395837344900

Track SL-3 DEB in real time with AllMySat

Download on the App Store